Change the Weather History Date:

Monday, January 13, 2014

  Actual Average (KJLN) Record (KJLN)
Temperature  
Mean Temperature 45 °F 35 °F  
Max Temperature 55 °F 44 °F 70 °F (1996)
Min Temperature 35 °F 25 °F -4 °F (1997)
Degree Days  
Heating Degree Days 20 30  
Month to date heating degree days 390  
Since 1 July heating degree days 2007  
Cooling Degree Days 0 0  
Month to date cooling degree days 0  
Year to date cooling degree days 0  
Moisture  
Dew Point 32 °F    
Average Humidity 64    
Maximum Humidity 87    
Minimum Humidity 40    
Precipitation  
Precipitation 0.00 in 0.06 in 1.56 in (1995)
Month to date precipitation 0.88  
Year to date precipitation 0.88  
Sea Level Pressure  
Sea Level Pressure 29.84 in    
Wind  
Wind Speed 12 mph (West)    
Max Wind Speed 22 mph    
Max Gust Speed 32 mph    
Visibility 10 miles    
Events      
T = Trace of Precipitation, MM = Missing Value Source: NWS Daily Summary

Daily Weather History Graph

Daily Weather History Graph

Search for Another Location

Airport or City:

Trip Planner

Search our weather history database for the weather conditions in past years. The results will help you decide how hot, cold, wet, or windy it might be!

Date:

Astronomy

Jan. 13, 2014 Rise Set
Actual Time 7:28 AM CST 5:21 PM CST
Civil Twilight 7:00 AM CST 5:49 PM CST
Nautical Twilight 6:28 AM CST 6:21 PM CST
Astronomical Twilight 5:57 AM CST 6:52 PM CST
Moon 3:36 PM CST (1/13) 5:18 AM CST (1/13)
Length of Visible Light 10h 49m
Length of Day
9h 52m
Waxing Gibbous, 95% of the Moon is Illuminated
Jan 13
Waxing Gibbous
Jan 15
Full
Jan 23
Last Quarter
Jan 30
New
Feb 6
First Quarter

Hourly Weather History & Observations

Time (CST) Temp. Windchill Dew Point Humidity Pressure Visibility Wind Dir Wind Speed Gust Speed Precip Events Conditions
12:15 AM 55.4 °F - 37.4 °F 51% 29.64 in 10.0 mi SSW 19.6 mph 25.3 mph N/A   Clear
12:35 AM 55.4 °F - 37.4 °F 51% 29.64 in 10.0 mi SSW 20.7 mph 26.5 mph N/A   Clear
12:55 AM 53.6 °F - 37.4 °F 54% 29.65 in 10.0 mi SW 18.4 mph 28.8 mph N/A   Clear
1:15 AM 53.6 °F - 39.2 °F 58% 29.65 in 10.0 mi SSW 19.6 mph 29.9 mph N/A   Clear
1:35 AM 53.6 °F - 41.0 °F 62% 29.66 in 10.0 mi SSW 21.9 mph 32.2 mph N/A   Scattered Clouds
1:55 AM 53.6 °F - 41.0 °F 62% 29.66 in 10.0 mi SW 16.1 mph 20.7 mph N/A   Mostly Cloudy
2:15 AM 53.6 °F - 42.8 °F 67% 29.67 in 10.0 mi SW 17.3 mph 21.9 mph N/A   Overcast
2:35 AM 53.6 °F - 42.8 °F 67% 29.68 in 10.0 mi WSW 18.4 mph - N/A   Overcast
2:55 AM 50.0 °F - 41.0 °F 71% 29.69 in 10.0 mi West 12.7 mph 16.1 mph N/A   Scattered Clouds
3:15 AM 48.2 °F - 37.4 °F 66% 29.71 in 10.0 mi WNW 12.7 mph - N/A   Mostly Cloudy
3:35 AM 44.6 °F 39.7 °F 33.8 °F 66% 29.72 in 10.0 mi WNW 9.2 mph - N/A   Mostly Cloudy
3:55 AM 42.8 °F 36.6 °F 33.8 °F 70% 29.73 in 10.0 mi NW 11.5 mph 16.1 mph N/A   Clear
4:15 AM 42.8 °F 37.0 °F 32.0 °F 66% 29.73 in 10.0 mi NW 10.4 mph - N/A   Clear
4:35 AM 41.0 °F 35.8 °F 32.0 °F 70% 29.74 in 10.0 mi WNW 8.1 mph - N/A   Clear
4:55 AM 39.2 °F 33.6 °F 32.0 °F 75% 29.74 in 10.0 mi NW 8.1 mph - N/A   Clear
5:15 AM 39.2 °F 34.2 °F 32.0 °F 75% 29.75 in 10.0 mi WNW 6.9 mph - N/A   Clear
5:35 AM 37.4 °F 31.4 °F 32.0 °F 81% 29.76 in 10.0 mi WNW 8.1 mph - N/A   Clear
5:55 AM 37.4 °F 32.8 °F 32.0 °F 81% 29.77 in 10.0 mi WNW 5.8 mph - N/A   Clear
6:15 AM 35.6 °F 30.7 °F 32.0 °F 87% 29.78 in 10.0 mi WNW 5.8 mph - N/A   Clear
6:35 AM 35.6 °F 29.9 °F 32.0 °F 87% 29.79 in 10.0 mi WNW 6.9 mph - N/A   Clear
6:55 AM 35.6 °F 32.8 °F 32.0 °F 87% 29.80 in 10.0 mi WNW 3.5 mph - N/A   Clear
7:15 AM 35.6 °F 29.9 °F 32.0 °F 87% 29.81 in 10.0 mi WNW 6.9 mph - N/A   Clear
7:35 AM 35.6 °F 29.9 °F 32.0 °F 87% 29.83 in 10.0 mi WNW 6.9 mph - N/A   Clear
7:55 AM 35.6 °F 30.7 °F 32.0 °F 87% 29.83 in 10.0 mi WNW 5.8 mph - N/A   Clear
8:15 AM 35.6 °F 31.7 °F 32.0 °F 87% 29.83 in 10.0 mi West 4.6 mph - N/A   Scattered Clouds
8:35 AM 37.4 °F 32.8 °F 32.0 °F 81% 29.85 in 10.0 mi West 5.8 mph - N/A   Scattered Clouds
8:55 AM 39.2 °F 34.2 °F 32.0 °F 75% 29.86 in 10.0 mi West 6.9 mph - N/A   Scattered Clouds
9:15 AM 41.0 °F 35.2 °F 33.8 °F 76% 29.88 in 10.0 mi WNW 9.2 mph - N/A   Clear
9:35 AM 42.8 °F 38.6 °F 33.8 °F 70% 29.89 in 10.0 mi WNW 6.9 mph - N/A   Clear
9:55 AM 42.8 °F 38.6 °F 33.8 °F 70% 29.89 in 10.0 mi WNW 6.9 mph - N/A   Clear
10:15 AM 44.6 °F 40.7 °F 33.8 °F 66% 29.90 in 10.0 mi West 6.9 mph - N/A   Clear
10:35 AM 46.4 °F 44.3 °F 35.6 °F 66% 29.90 in 10.0 mi West 4.6 mph - N/A   Clear
10:55 AM 46.4 °F 44.3 °F 35.6 °F 66% 29.90 in 10.0 mi West 4.6 mph - N/A   Clear
11:15 AM 46.4 °F 42.4 °F 35.6 °F 66% 29.89 in 10.0 mi NW 8.1 mph - N/A   Clear
11:35 AM 48.2 °F - 35.6 °F 62% 29.89 in 10.0 mi WNW 10.4 mph - N/A   Clear
11:55 AM 50.0 °F - 33.8 °F 54% 29.88 in 10.0 mi WNW 9.2 mph - N/A   Clear
12:15 PM 50.0 °F - 32.0 °F 50% 29.88 in 10.0 mi WNW 12.7 mph - N/A   Clear
12:35 PM 50.0 °F - 32.0 °F 50% 29.87 in 10.0 mi WNW 12.7 mph 16.1 mph N/A   Clear
12:55 PM 50.0 °F - 32.0 °F 50% 29.86 in 10.0 mi NW 13.8 mph 17.3 mph N/A   Clear
1:15 PM 50.0 °F - 32.0 °F 50% 29.86 in 10.0 mi NW 12.7 mph 17.3 mph N/A   Clear
1:35 PM 51.8 °F - 32.0 °F 47% 29.86 in 10.0 mi WNW 12.7 mph 20.7 mph N/A   Clear
1:55 PM 50.0 °F - 30.2 °F 47% 29.86 in 10.0 mi NW 16.1 mph 21.9 mph N/A   Clear
2:15 PM 50.0 °F - 30.2 °F 47% 29.86 in 10.0 mi WNW 16.1 mph 24.2 mph N/A   Clear
2:35 PM 50.0 °F - 30.2 °F 47% 29.87 in 10.0 mi NW 12.7 mph 25.3 mph N/A   Clear
2:55 PM 50.0 °F - 28.4 °F 43% 29.88 in 10.0 mi WNW 16.1 mph - N/A   Clear
3:15 PM 50.0 °F - 30.2 °F 47% 29.88 in 10.0 mi WNW 18.4 mph - N/A   Clear
3:35 PM 50.0 °F - 28.4 °F 43% 29.88 in 10.0 mi WNW 13.8 mph - N/A   Clear
3:55 PM 50.0 °F - 28.4 °F 43% 29.89 in 10.0 mi WNW 12.7 mph - N/A   Clear
4:15 PM 50.0 °F - 26.6 °F 40% 29.89 in 10.0 mi West 15.0 mph 18.4 mph N/A   Clear
4:35 PM 48.2 °F - 28.4 °F 46% 29.89 in 10.0 mi West 12.7 mph 17.3 mph N/A   Clear
4:55 PM 46.4 °F 41.5 °F 28.4 °F 50% 29.89 in 10.0 mi West 10.4 mph - N/A   Clear
5:15 PM 44.6 °F 40.7 °F 28.4 °F 53% 29.90 in 10.0 mi West 6.9 mph - N/A   Clear
5:35 PM 44.6 °F 43.1 °F 28.4 °F 53% 29.90 in 10.0 mi WSW 3.5 mph - N/A   Clear
5:55 PM 44.6 °F 43.1 °F 28.4 °F 53% 29.90 in 10.0 mi WSW 3.5 mph - N/A   Clear
6:15 PM 42.8 °F 39.3 °F 28.4 °F 57% 29.91 in 10.0 mi WSW 5.8 mph - N/A   Clear
6:35 PM 42.8 °F 41.1 °F 26.6 °F 53% 29.91 in 10.0 mi WSW 3.5 mph - N/A   Clear
6:55 PM 42.8 °F 40.1 °F 28.4 °F 57% 29.91 in 10.0 mi WSW 4.6 mph - N/A   Clear
7:15 PM 41.0 °F - 28.4 °F 61% 29.92 in 10.0 mi Calm Calm - N/A   Clear
7:35 PM 39.2 °F - 28.4 °F 65% 29.92 in 10.0 mi Calm Calm - N/A   Clear
7:55 PM 39.2 °F - 28.4 °F 65% 29.92 in 10.0 mi Calm Calm - N/A   Clear
8:15 PM 39.2 °F 35.9 °F 28.4 °F 65% 29.91 in 10.0 mi SSW 4.6 mph - N/A   Clear
8:35 PM 37.4 °F 32.8 °F 28.4 °F 70% 29.91 in 10.0 mi SSW 5.8 mph - N/A   Clear
8:55 PM 37.4 °F 33.8 °F 28.4 °F 70% 29.91 in 10.0 mi South 4.6 mph - N/A   Clear
9:15 PM 37.4 °F 32.8 °F 28.4 °F 70% 29.91 in 10.0 mi SSW 5.8 mph - N/A   Clear
9:35 PM 35.6 °F 30.7 °F 26.6 °F 70% 29.91 in 10.0 mi SSW 5.8 mph - N/A   Clear
9:55 PM 35.6 °F 30.7 °F 26.6 °F 70% 29.91 in 10.0 mi South 5.8 mph - N/A   Clear
10:15 PM 35.6 °F 30.7 °F 26.6 °F 70% 29.91 in 10.0 mi South 5.8 mph - N/A   Clear
10:35 PM 35.6 °F 30.7 °F 26.6 °F 70% 29.90 in 10.0 mi South 5.8 mph - N/A   Clear
10:55 PM 35.6 °F 29.9 °F 26.6 °F 70% 29.91 in 10.0 mi South 6.9 mph - N/A   Clear
11:15 PM 35.6 °F 29.9 °F 26.6 °F 70% 29.90 in 10.0 mi SSW 6.9 mph - N/A   Clear
11:35 PM 35.6 °F 29.2 °F 26.6 °F 70% 29.90 in 10.0 mi SSW 8.1 mph - N/A   Clear
11:55 PM 35.6 °F 29.2 °F 26.6 °F 70% 29.90 in 10.0 mi SSW 8.1 mph - N/A   Clear